Time,TemperatureF,DewpointF,PressureIn,WindDirection,WindDirectionDegrees,WindSpeedMPH,WindSpeedGustMPH,Humidity,HourlyPrecipIn,Conditions,Clouds,dailyrainin,SoftwareType,DateUTC
2013-03-24 00:32:00,12.0,10.0,-100.00,NNW,330,3.0,-999.0,91,-99.99,,,-99.99,,2013-03-24 06:32:00,
2013-03-24 00:42:00,12.0,10.0,-100.00,NNW,330,3.0,-999.0,91,-99.99,,,-99.99,,2013-03-24 06:42:00,
2013-03-24 00:52:00,12.0,10.0,-100.00,NNW,330,3.0,-999.0,91,-99.99,,,-99.99,,2013-03-24 06:52:00,
2013-03-24 01:32:00,12.0,10.0,-100.00,NNW,340,3.0,-999.0,91,-99.99,,,-99.99,,2013-03-24 07:32:00,
2013-03-24 01:42:00,12.0,10.0,-100.00,NNW,340,3.0,-999.0,91,-99.99,,,-99.99,,2013-03-24 07:42:00,
2013-03-24 01:52:00,12.0,10.0,-100.00,NNW,340,3.0,-999.0,91,-99.99,,,-99.99,,2013-03-24 07:52:00,
2013-03-24 02:32:00,11.0,9.0,-100.00,NW,320,3.0,-999.0,91,-99.99,,,-99.99,,2013-03-24 08:32:00,
2013-03-24 02:42:00,11.0,9.0,-100.00,NW,320,3.0,-999.0,91,-99.99,,,-99.99,,2013-03-24 08:42:00,
2013-03-24 02:52:00,11.0,9.0,-100.00,NW,320,3.0,-999.0,91,-99.99,,,-99.99,,2013-03-24 08:52:00,
2013-03-24 03:33:00,11.0,9.0,-100.00,NW,320,3.0,-999.0,91,-99.99,,,-99.99,,2013-03-24 09:33:00,
2013-03-24 03:42:00,11.0,9.0,-100.00,NW,320,3.0,-999.0,91,-99.99,,,-99.99,,2013-03-24 09:42:00,
2013-03-24 03:52:00,11.0,9.0,-100.00,NW,320,3.0,-999.0,91,-99.99,,,-99.99,,2013-03-24 09:52:00,
2013-03-24 04:33:00,10.0,8.0,-100.00,NNW,330,5.0,-999.0,91,-99.99,,,-99.99,,2013-03-24 10:33:00,
2013-03-24 04:42:00,10.0,8.0,-100.00,NNW,330,5.0,-999.0,91,-99.99,,,-99.99,,2013-03-24 10:42:00,
2013-03-24 04:52:00,10.0,8.0,-100.00,NNW,330,5.0,-999.0,91,-99.99,,,-99.99,,2013-03-24 10:52:00,
2013-03-24 05:33:00,10.0,8.0,-100.00,WNW,300,5.0,-999.0,91,-99.99,,,-99.99,,2013-03-24 11:33:00,
2013-03-24 05:42:00,10.0,8.0,-100.00,WNW,300,5.0,-999.0,91,-99.99,,,-99.99,,2013-03-24 11:42:00,
2013-03-24 05:52:00,10.0,8.0,-100.00,WNW,300,5.0,-999.0,91,-99.99,,,-99.99,,2013-03-24 11:52:00,
2013-03-24 06:32:00,10.0,8.0,-100.00,NW,320,5.0,-999.0,91,-99.99,,,-99.99,,2013-03-24 12:32:00,
2013-03-24 06:42:00,10.0,8.0,-100.00,NW,320,5.0,-999.0,91,-99.99,,,-99.99,,2013-03-24 12:42:00,
2013-03-24 06:52:00,10.0,8.0,-100.00,NW,320,5.0,-999.0,91,-99.99,,,-99.99,,2013-03-24 12:52:00,
2013-03-24 07:32:00,9.0,7.0,-100.00,NNW,330,7.0,-999.0,91,-99.99,,,-99.99,,2013-03-24 13:32:00,
2013-03-24 07:42:00,9.0,7.0,-100.00,NNW,330,7.0,-999.0,91,-99.99,,,-99.99,,2013-03-24 13:42:00,
2013-03-24 07:52:00,9.0,7.0,-100.00,NNW,330,7.0,-999.0,91,-99.99,,,-99.99,,2013-03-24 13:52:00,
2013-03-24 08:32:00,9.0,6.0,-100.00,NW,320,8.0,-999.0,87,-99.99,,,-99.99,,2013-03-24 14:32:00,
2013-03-24 08:42:00,9.0,6.0,-100.00,NW,320,8.0,-999.0,87,-99.99,,,-99.99,,2013-03-24 14:42:00,
2013-03-24 08:52:00,9.0,6.0,-100.00,NW,320,8.0,-999.0,87,-99.99,,,-99.99,,2013-03-24 14:52:00,
2013-03-24 09:33:00,12.0,8.0,-100.00,NW,320,7.0,-999.0,83,-99.99,,,-99.99,,2013-03-24 15:33:00,
2013-03-24 09:43:00,12.0,8.0,-100.00,NW,320,7.0,-999.0,83,-99.99,,,-99.99,,2013-03-24 15:43:00,
2013-03-24 09:53:00,12.0,8.0,-100.00,NW,320,7.0,-999.0,83,-99.99,,,-99.99,,2013-03-24 15:53:00,
2013-03-24 10:33:00,15.0,8.0,-100.00,NNW,330,8.0,-999.0,73,-99.99,,,-99.99,,2013-03-24 16:33:00,
2013-03-24 10:42:00,15.0,8.0,-100.00,NNW,330,8.0,-999.0,73,-99.99,,,-99.99,,2013-03-24 16:42:00,
2013-03-24 10:52:00,15.0,8.0,-100.00,NNW,330,8.0,-999.0,73,-99.99,,,-99.99,,2013-03-24 16:52:00,
2013-03-24 11:33:00,18.0,10.0,-100.00,NW,310,6.0,-999.0,70,-99.99,,,-99.99,,2013-03-24 17:33:00,
2013-03-24 11:42:00,18.0,10.0,-100.00,NW,310,6.0,-999.0,70,-99.99,,,-99.99,,2013-03-24 17:42:00,
2013-03-24 11:52:00,18.0,10.0,-100.00,NW,310,6.0,-999.0,70,-99.99,,,-99.99,,2013-03-24 17:52:00,
2013-03-24 12:32:00,21.0,11.0,-100.00,NW,320,6.0,-999.0,64,-99.99,,,-99.99,,2013-03-24 18:32:00,
2013-03-24 12:43:00,21.0,11.0,-100.00,NW,320,6.0,-999.0,64,-99.99,,,-99.99,,2013-03-24 18:43:00,
2013-03-24 12:52:00,21.0,11.0,-100.00,NW,320,6.0,-999.0,64,-99.99,,,-99.99,,2013-03-24 18:52:00,
2013-03-24 13:32:00,23.0,10.0,-100.00,NW,310,6.0,-999.0,56,-99.99,,,-99.99,,2013-03-24 19:32:00,
2013-03-24 13:42:00,23.0,10.0,-100.00,NW,310,6.0,-999.0,56,-99.99,,,-99.99,,2013-03-24 19:42:00,
2013-03-24 13:52:00,23.0,10.0,-100.00,NW,310,6.0,-999.0,56,-99.99,,,-99.99,,2013-03-24 19:52:00,
2013-03-24 14:32:00,25.0,12.0,-100.00,NW,310,5.0,-999.0,57,-99.99,,,-99.99,,2013-03-24 20:32:00,
2013-03-24 14:42:00,25.0,12.0,-100.00,NW,310,5.0,-999.0,57,-99.99,,,-99.99,,2013-03-24 20:42:00,
2013-03-24 14:52:00,25.0,12.0,-100.00,NW,310,5.0,-999.0,57,-99.99,,,-99.99,,2013-03-24 20:52:00,
2013-03-24 15:33:00,25.0,12.0,-100.00,North,350,6.0,-999.0,57,-99.99,,,-99.99,,2013-03-24 21:33:00,
2013-03-24 15:43:00,25.0,12.0,-100.00,North,350,6.0,-999.0,57,-99.99,,,-99.99,,2013-03-24 21:43:00,
2013-03-24 15:52:00,25.0,12.0,-100.00,North,350,6.0,-999.0,57,-99.99,,,-99.99,,2013-03-24 21:52:00,
2013-03-24 16:33:00,26.0,11.0,-100.00,NNW,340,6.0,-999.0,52,-99.99,,,-99.99,,2013-03-24 22:33:00,
2013-03-24 16:43:00,26.0,11.0,-100.00,NNW,340,6.0,-999.0,52,-99.99,,,-99.99,,2013-03-24 22:43:00,
2013-03-24 16:52:00,26.0,11.0,-100.00,NNW,340,6.0,-999.0,52,-99.99,,,-99.99,,2013-03-24 22:52:00,
2013-03-24 17:32:00,23.0,10.0,-100.00,NNE,30,5.0,-999.0,56,-99.99,,,-99.99,,2013-03-24 23:32:00,
2013-03-24 17:42:00,23.0,10.0,-100.00,NNE,30,5.0,-999.0,56,-99.99,,,-99.99,,2013-03-24 23:42:00,
2013-03-24 17:52:00,23.0,10.0,-100.00,NNE,30,5.0,-999.0,56,-99.99,,,-99.99,,2013-03-24 23:52:00,
2013-03-24 19:32:00,21.0,11.0,-100.00,North,10,3.0,-999.0,64,-99.99,,,-99.99,,2013-03-25 01:32:00,
2013-03-24 19:42:00,21.0,11.0,-100.00,North,10,3.0,-999.0,64,-99.99,,,-99.99,,2013-03-25 01:42:00,
2013-03-24 19:52:00,21.0,11.0,-100.00,North,10,3.0,-999.0,64,-99.99,,,-99.99,,2013-03-25 01:52:00,
2013-03-24 20:33:00,16.0,9.0,-100.00,NE,50,5.0,-999.0,73,-99.99,,,-99.99,,2013-03-25 02:33:00,
2013-03-24 20:42:00,16.0,9.0,-100.00,NE,50,5.0,-999.0,73,-99.99,,,-99.99,,2013-03-25 02:42:00,
2013-03-24 20:52:00,16.0,9.0,-100.00,NE,50,5.0,-999.0,73,-99.99,,,-99.99,,2013-03-25 02:52:00,
2013-03-24 21:33:00,15.0,9.0,-100.00,ENE,60,3.0,-999.0,76,-99.99,,,-99.99,,2013-03-25 03:33:00,
2013-03-24 21:43:00,15.0,9.0,-100.00,ENE,60,3.0,-999.0,76,-99.99,,,-99.99,,2013-03-25 03:43:00,
2013-03-24 21:52:00,15.0,9.0,-100.00,ENE,60,3.0,-999.0,76,-99.99,,,-99.99,,2013-03-25 03:52:00,
2013-03-24 22:33:00,13.0,10.0,-100.00,East,80,2.0,-999.0,87,-99.99,,,-99.99,,2013-03-25 04:33:00,
2013-03-24 22:43:00,13.0,10.0,-100.00,East,80,2.0,-999.0,87,-99.99,,,-99.99,,2013-03-25 04:43:00,
2013-03-24 22:52:00,13.0,10.0,-100.00,East,80,2.0,-999.0,87,-99.99,,,-99.99,,2013-03-25 04:52:00,
2013-03-24 23:32:00,14.0,9.0,-100.00,ENE,60,2.0,-999.0,79,-99.99,,,-99.99,,2013-03-25 05:32:00,
2013-03-24 23:42:00,14.0,9.0,-100.00,ENE,60,2.0,-999.0,79,-99.99,,,-99.99,,2013-03-25 05:42:00,
2013-03-24 23:52:00,14.0,9.0,-100.00,ENE,60,2.0,-999.0,79,-99.99,,,-99.99,,2013-03-25 05:52:00,